Location: Aurora Center
(43.5271°N, 98.5894°W)
Time: 22:36:17
(UTC-05:00)

ISS - Pass Details

Date: 25 June 2024
Orbit: 409 x 424 km, 51.6° (Epoch: 18 July)

Event Time Altitude Azimuth Distance (km) Brightness Sun altitude
Exits shadow 04:29:00 22° 219° (SW) 956 -2.6 -12.4°
Maximum altitude 04:30:57 61° 143° (SE) 473 -3.6 -12.1°
Drops below altitude 10° 04:34:16 10° 63° (ENE) 1,495 0.2 -11.7°
Sets 04:36:23 0° 60° (ENE) 2,365 1.6 -11.5°
